Location: Unnamed
(45.7828°N, 108.5339°W)
Time: 18:59:21
(UTC-06:00)

ISS - Pass Details

Date: 29 June 2021
Orbit: 419 x 421 km, 51.6° (Epoch: 02 August)

Event Time Altitude Azimuth Distance (km) Brightness Sun altitude
Exits shadow 04:02:19 16° 190° (S) 1,179 -2.0 -11.5°
Maximum altitude 04:04:18 28° 140° (SE) 818 -2.4 -11.3°
Drops below altitude 10° 04:07:15 10° 79° (E) 1,502 -0.2 -11.0°
Sets 04:09:31 0° 67° (ENE) 2,369 1.3 -10.8°
